contact:dominique.lefevre@mio.osupytheas.fr, maurice.libes@osupytheas.fr, didier.mallarino@osupytheas.fr
Project:EMSO http://www.emso-fr.org/EMSO-France
Depth: 2436.0 m
Title:EMSO Ligure Ouest : Data MII capteur MICROCAT
DateTime_Computer,Latitude,Longitude,Temperature,Conductivity,Pressure,DateTime_Instrument
DateTime_Computer,Latitude,Longitude,degC,S m-1,dbar,DateTime_Instrument
2020-06-29T00:01:23Z,42.805,6.029,13.2979,4.59983,2470.133,2020-6-29T02:02:08Z
2020-06-29T00:04:26Z,42.805,6.029,13.2975,4.59989,2470.133,2020-6-29T02:05:12Z
2020-06-29T00:07:29Z,42.805,6.029,13.2980,4.59995,2470.171,2020-6-29T02:08:15Z
2020-06-29T00:10:33Z,42.805,6.029,13.2983,4.59989,2470.133,2020-6-29T02:11:18Z
2020-06-29T00:13:36Z,42.805,6.029,13.2979,4.59984,2470.171,2020-6-29T02:14:21Z
2020-06-29T00:16:39Z,42.805,6.029,13.2978,4.59984,2470.133,2020-6-29T02:17:24Z
2020-06-29T00:19:42Z,42.805,6.029,13.2978,4.59983,2470.133,2020-6-29T02:20:28Z
2020-06-29T00:22:45Z,42.805,6.029,13.2979,4.59988,2470.156,2020-6-29T02:23:31Z
2020-06-29T00:25:49Z,42.805,6.029,13.2984,4.60001,2470.133,2020-6-29T02:26:34Z
2020-06-29T00:28:52Z,42.805,6.029,13.2984,4.60009,2470.156,2020-6-29T02:29:37Z
2020-06-29T00:31:55Z,42.805,6.029,13.2974,4.59999,2470.18,2020-6-29T02:32:41Z
2020-06-29T00:34:58Z,42.805,6.029,13.2973,4.59987,2470.171,2020-6-29T02:35:44Z
2020-06-29T00:38:02Z,42.805,6.029,13.2981,4.59991,2470.147,2020-6-29T02:38:47Z
2020-06-29T00:41:05Z,42.805,6.029,13.2981,4.59994,2470.133,2020-6-29T02:41:50Z
2020-06-29T00:44:08Z,42.805,6.029,13.2983,4.59993,2470.156,2020-6-29T02:44:54Z
2020-06-29T00:47:11Z,42.805,6.029,13.2979,4.59983,2470.133,2020-6-29T02:47:57Z
2020-06-29T00:50:15Z,42.805,6.029,13.2982,4.60003,2470.133,2020-6-29T02:51:00Z
2020-06-29T00:53:18Z,42.805,6.029,13.2976,4.59992,2470.194,2020-6-29T02:54:03Z
2020-06-29T00:56:21Z,42.805,6.029,13.2974,4.59986,2470.133,2020-6-29T02:57:06Z
2020-06-29T00:59:24Z,42.805,6.029,13.2975,4.59996,2470.171,2020-6-29T03:00:10Z
2020-06-29T01:02:27Z,42.805,6.029,13.2977,4.59984,2470.156,2020-6-29T03:03:13Z
2020-06-29T01:05:31Z,42.805,6.029,13.2979,4.59987,2470.171,2020-6-29T03:06:16Z
2020-06-29T01:08:34Z,42.805,6.029,13.2979,4.59986,2470.18,2020-6-29T03:09:19Z
2020-06-29T01:11:37Z,42.805,6.029,13.2982,4.59985,2470.171,2020-6-29T03:12:23Z
2020-06-29T01:14:40Z,42.805,6.029,13.2975,4.59983,2470.156,2020-6-29T03:15:26Z
2020-06-29T01:17:44Z,42.805,6.029,13.2980,4.59988,2470.156,2020-6-29T03:18:29Z
2020-06-29T01:20:47Z,42.805,6.029,13.2980,4.60004,2470.171,2020-6-29T03:21:32Z
2020-06-29T01:23:50Z,42.805,6.029,13.2979,4.59986,2470.147,2020-6-29T03:24:36Z
2020-06-29T01:26:53Z,42.805,6.029,13.2979,4.59990,2470.156,2020-6-29T03:27:39Z
2020-06-29T01:29:56Z,42.805,6.029,13.2983,4.59994,2470.11,2020-6-29T03:30:42Z
2020-06-29T01:33:00Z,42.805,6.029,13.2982,4.59986,2470.119,2020-6-29T03:33:45Z
2020-06-29T01:36:03Z,42.805,6.029,13.2976,4.59982,2470.147,2020-6-29T03:36:48Z
2020-06-29T01:39:06Z,42.805,6.029,13.2982,4.60002,2470.133,2020-6-29T03:39:52Z
2020-06-29T01:42:10Z,42.805,6.029,13.2976,4.60000,2470.194,2020-6-29T03:42:55Z
2020-06-29T01:45:13Z,42.805,6.029,13.2976,4.59994,2470.133,2020-6-29T03:45:58Z
2020-06-29T01:48:16Z,42.805,6.029,13.2979,4.59990,2470.133,2020-6-29T03:49:02Z
2020-06-29T01:51:19Z,42.805,6.029,13.2977,4.59991,2470.18,2020-6-29T03:52:05Z
2020-06-29T01:54:23Z,42.805,6.029,13.2978,4.59994,2470.147,2020-6-29T03:55:08Z
2020-06-29T01:57:26Z,42.805,6.029,13.2981,4.59992,2470.133,2020-6-29T03:58:11Z
2020-06-29T02:00:29Z,42.805,6.029,13.2978,4.59982,2470.194,2020-6-29T04:01:15Z
2020-06-29T02:03:32Z,42.805,6.029,13.2978,4.59983,2470.133,2020-6-29T04:04:18Z
2020-06-29T02:06:35Z,42.805,6.029,13.2977,4.59986,2470.156,2020-6-29T04:07:21Z
2020-06-29T02:09:39Z,42.805,6.029,13.2978,4.59986,2470.133,2020-6-29T04:10:24Z
2020-06-29T02:12:42Z,42.805,6.029,13.2977,4.60001,2470.194,2020-6-29T04:13:27Z
2020-06-29T02:15:45Z,42.805,6.029,13.2979,4.60006,2470.156,2020-6-29T04:16:31Z
2020-06-29T02:18:48Z,42.805,6.029,13.2984,4.59992,2470.133,2020-6-29T04:19:34Z
2020-06-29T02:21:52Z,42.805,6.029,13.2977,4.59986,2470.156,2020-6-29T04:22:37Z
2020-06-29T02:24:55Z,42.805,6.029,13.2977,4.59990,2470.143,2020-6-29T04:25:40Z
2020-06-29T02:27:58Z,42.805,6.029,13.2976,4.59992,2470.156,2020-6-29T04:28:43Z
2020-06-29T02:31:01Z,42.805,6.029,13.2975,4.59985,2470.147,2020-6-29T04:31:47Z
2020-06-29T02:34:05Z,42.805,6.029,13.2973,4.59983,2470.11,2020-6-29T04:34:50Z
2020-06-29T02:37:08Z,42.805,6.029,13.2977,4.59985,2470.133,2020-6-29T04:37:53Z
2020-06-29T02:40:11Z,42.805,6.029,13.2980,4.59994,2470.133,2020-6-29T04:40:56Z
2020-06-29T02:43:14Z,42.805,6.029,13.2978,4.59996,2470.133,2020-6-29T04:44:00Z
2020-06-29T02:46:17Z,42.805,6.029,13.2976,4.59991,2470.133,2020-6-29T04:47:03Z
2020-06-29T02:49:21Z,42.805,6.029,13.2975,4.59995,2470.156,2020-6-29T04:50:06Z
2020-06-29T02:52:24Z,42.805,6.029,13.2980,4.59985,2470.156,2020-6-29T04:53:09Z
2020-06-29T02:55:27Z,42.805,6.029,13.2978,4.59996,2470.11,2020-6-29T04:56:12Z
2020-06-29T02:58:30Z,42.805,6.029,13.2983,4.59989,2470.096,2020-6-29T04:59:16Z
2020-06-29T03:01:33Z,42.805,6.029,13.2981,4.59996,2470.133,2020-6-29T05:02:19Z
2020-06-29T03:04:37Z,42.805,6.029,13.2976,4.59986,2470.124,2020-6-29T05:05:22Z
2020-06-29T03:07:40Z,42.805,6.029,13.2976,4.59990,2470.133,2020-6-29T05:08:25Z
2020-06-29T03:10:43Z,42.805,6.029,13.2982,4.59991,2470.133,2020-6-29T05:11:29Z
2020-06-29T03:13:46Z,42.805,6.029,13.2976,4.60004,2470.133,2020-6-29T05:14:32Z
2020-06-29T03:16:50Z,42.805,6.029,13.2971,4.59990,2470.156,2020-6-29T05:17:35Z
2020-06-29T03:19:53Z,42.805,6.029,13.2972,4.59986,2470.156,2020-6-29T05:20:38Z
2020-06-29T03:22:56Z,42.805,6.029,13.2979,4.59989,2470.133,2020-6-29T05:23:42Z
2020-06-29T03:25:59Z,42.805,6.029,13.2976,4.59984,2470.147,2020-6-29T05:26:45Z
2020-06-29T03:29:03Z,42.805,6.029,13.2974,4.59986,2470.11,2020-6-29T05:29:48Z
2020-06-29T03:32:06Z,42.805,6.029,13.2978,4.59986,2470.171,2020-6-29T05:32:51Z
2020-06-29T03:35:09Z,42.805,6.029,13.2979,4.59996,2470.147,2020-6-29T05:35:55Z
2020-06-29T03:38:12Z,42.805,6.029,13.2977,4.60002,2470.156,2020-6-29T05:38:58Z
2020-06-29T03:41:16Z,42.805,6.029,13.2981,4.59989,2470.147,2020-6-29T05:42:01Z
2020-06-29T03:44:19Z,42.805,6.029,13.2976,4.59993,2470.133,2020-6-29T05:45:04Z
2020-06-29T03:47:22Z,42.805,6.029,13.2977,4.59993,2470.156,2020-6-29T05:48:08Z
2020-06-29T03:50:25Z,42.805,6.029,13.2986,4.60008,2470.124,2020-6-29T05:51:11Z
2020-06-29T03:53:29Z,42.805,6.029,13.2977,4.59992,2470.124,2020-6-29T05:54:14Z
2020-06-29T03:56:32Z,42.805,6.029,13.2975,4.59985,2470.11,2020-6-29T05:57:17Z
2020-06-29T03:59:35Z,42.805,6.029,13.2983,4.59992,2470.087,2020-6-29T06:00:21Z
2020-06-29T04:02:39Z,42.805,6.029,13.2976,4.59996,2470.133,2020-6-29T06:03:24Z
2020-06-29T04:05:42Z,42.805,6.029,13.2981,4.59997,2470.11,2020-6-29T06:06:27Z
2020-06-29T04:08:45Z,42.805,6.029,13.2980,4.59993,2470.087,2020-6-29T06:09:30Z
2020-06-29T04:11:48Z,42.805,6.029,13.2976,4.59995,2470.1,2020-6-29T06:12:34Z
2020-06-29T04:14:52Z,42.805,6.029,13.2978,4.59987,2470.1,2020-6-29T06:15:37Z
2020-06-29T04:17:55Z,42.805,6.029,13.2983,4.60006,2470.124,2020-6-29T06:18:40Z
2020-06-29T04:20:58Z,42.805,6.029,13.2981,4.59992,2470.11,2020-6-29T06:21:44Z
2020-06-29T04:24:02Z,42.805,6.029,13.2983,4.60008,2470.11,2020-6-29T06:24:47Z
2020-06-29T04:27:05Z,42.805,6.029,13.2981,4.60019,2470.087,2020-6-29T06:27:50Z
2020-06-29T04:30:08Z,42.805,6.029,13.2981,4.60001,2470.124,2020-6-29T06:30:54Z
2020-06-29T04:33:11Z,42.805,6.029,13.2980,4.59987,2470.11,2020-6-29T06:33:57Z
2020-06-29T04:36:15Z,42.805,6.029,13.2981,4.59991,2470.087,2020-6-29T06:37:00Z
2020-06-29T04:39:18Z,42.805,6.029,13.2979,4.59996,2470.1,2020-6-29T06:40:03Z
2020-06-29T04:42:21Z,42.805,6.029,13.2978,4.59999,2470.087,2020-6-29T06:43:07Z
2020-06-29T04:45:24Z,42.805,6.029,13.2975,4.59984,2470.11,2020-6-29T06:46:10Z
2020-06-29T04:48:28Z,42.805,6.029,13.2979,4.60011,2470.11,2020-6-29T06:49:13Z
2020-06-29T04:51:31Z,42.805,6.029,13.2983,4.59995,2470.063,2020-6-29T06:52:16Z
2020-06-29T04:54:34Z,42.805,6.029,13.2988,4.59998,2470.1,2020-6-29T06:55:20Z
2020-06-29T04:57:37Z,42.805,6.029,13.2979,4.60003,2470.087,2020-6-29T06:58:23Z
2020-06-29T05:00:41Z,42.805,6.029,13.2981,4.59986,2470.087,2020-6-29T07:01:26Z
2020-06-29T05:03:44Z,42.805,6.029,13.2976,4.59992,2470.124,2020-6-29T07:04:29Z
2020-06-29T05:06:47Z,42.805,6.029,13.2976,4.59987,2470.1,2020-6-29T07:07:33Z
2020-06-29T05:09:50Z,42.805,6.029,13.2978,4.59996,2470.063,2020-6-29T07:10:36Z
2020-06-29T05:12:54Z,42.805,6.029,13.2982,4.59991,2470.063,2020-6-29T07:13:39Z
2020-06-29T05:15:57Z,42.805,6.029,13.2973,4.59991,2470.1,2020-6-29T07:16:42Z
2020-06-29T05:19:00Z,42.805,6.029,13.2978,4.59994,2470.087,2020-6-29T07:19:45Z
2020-06-29T05:22:03Z,42.805,6.029,13.2983,4.59999,2470.087,2020-6-29T07:22:49Z
2020-06-29T05:25:07Z,42.805,6.029,13.2982,4.59991,2470.087,2020-6-29T07:25:52Z
2020-06-29T05:28:10Z,42.805,6.029,13.2979,4.59995,2470.1,2020-6-29T07:28:56Z
2020-06-29T05:31:13Z,42.805,6.029,13.2982,4.59991,2470.087,2020-6-29T07:31:59Z
2020-06-29T05:34:17Z,42.805,6.029,13.2976,4.59983,2470.077,2020-6-29T07:35:02Z
2020-06-29T05:37:20Z,42.805,6.029,13.2980,4.59995,2470.063,2020-6-29T07:38:05Z
2020-06-29T05:40:23Z,42.805,6.029,13.2976,4.59988,2470.03,2020-6-29T07:41:08Z
2020-06-29T05:43:26Z,42.805,6.029,13.2979,4.59986,2470.077,2020-6-29T07:44:12Z
2020-06-29T05:46:29Z,42.805,6.029,13.2979,4.59990,2470.077,2020-6-29T07:47:15Z
2020-06-29T05:49:33Z,42.805,6.029,13.2982,4.60011,2470.063,2020-6-29T07:50:18Z
2020-06-29T05:52:36Z,42.805,6.029,13.2983,4.59991,2470.063,2020-6-29T07:53:21Z
2020-06-29T05:55:39Z,42.805,6.029,13.2983,4.60007,2470.063,2020-6-29T07:56:25Z
2020-06-29T05:58:42Z,42.805,6.029,13.2976,4.60001,2470.063,2020-6-29T07:59:28Z
2020-06-29T06:01:46Z,42.805,6.029,13.2979,4.59996,2470.04,2020-6-29T08:02:31Z
2020-06-29T06:04:49Z,42.805,6.029,13.2980,4.60002,2470.063,2020-6-29T08:05:34Z
2020-06-29T06:07:52Z,42.805,6.029,13.2982,4.59988,2470.04,2020-6-29T08:08:38Z
2020-06-29T06:10:55Z,42.805,6.029,13.2976,4.59988,2470.053,2020-6-29T08:11:41Z
2020-06-29T06:13:59Z,42.805,6.029,13.2978,4.59993,2470.053,2020-6-29T08:14:44Z
2020-06-29T06:17:02Z,42.805,6.029,13.2980,4.59987,2470.063,2020-6-29T08:17:47Z
2020-06-29T06:20:05Z,42.805,6.029,13.2979,4.59990,2470.017,2020-6-29T08:20:51Z
2020-06-29T06:23:08Z,42.805,6.029,13.2984,4.59992,2470.017,2020-6-29T08:23:54Z
2020-06-29T06:26:12Z,42.805,6.029,13.2979,4.59990,2470.03,2020-6-29T08:26:57Z
2020-06-29T06:29:15Z,42.805,6.029,13.2982,4.59989,2470.077,2020-6-29T08:30:00Z
2020-06-29T06:32:18Z,42.805,6.029,13.2983,4.60009,2470.04,2020-6-29T08:33:04Z
2020-06-29T06:35:21Z,42.805,6.029,13.2980,4.59991,2470.04,2020-6-29T08:36:07Z
2020-06-29T06:38:25Z,42.805,6.029,13.2982,4.60002,2470.017,2020-6-29T08:39:10Z
2020-06-29T06:41:28Z,42.805,6.029,13.2985,4.59991,2470.017,2020-6-29T08:42:13Z
2020-06-29T06:44:31Z,42.805,6.029,13.2979,4.59995,2470.053,2020-6-29T08:45:16Z
2020-06-29T06:47:34Z,42.805,6.029,13.2983,4.59991,2470.053,2020-6-29T08:48:20Z
2020-06-29T06:50:37Z,42.805,6.029,13.2985,4.60006,2470.017,2020-6-29T08:51:23Z
2020-06-29T06:53:41Z,42.805,6.029,13.2974,4.59991,2470.017,2020-6-29T08:54:26Z
2020-06-29T06:56:44Z,42.805,6.029,13.2982,4.59995,2470.04,2020-6-29T08:57:29Z
2020-06-29T06:59:47Z,42.805,6.029,13.2975,4.59987,2470.053,2020-6-29T09:00:33Z
2020-06-29T07:02:50Z,42.805,6.029,13.2981,4.59997,2470.03,2020-6-29T09:03:36Z
2020-06-29T07:05:54Z,42.805,6.029,13.2979,4.59994,2470.04,2020-6-29T09:06:39Z
2020-06-29T07:08:57Z,42.805,6.029,13.2979,4.59993,2469.993,2020-6-29T09:09:42Z
2020-06-29T07:12:00Z,42.805,6.029,13.2978,4.59983,2470.017,2020-6-29T09:12:45Z
2020-06-29T07:15:03Z,42.805,6.029,13.2976,4.59990,2470.03,2020-6-29T09:15:49Z
2020-06-29T07:18:06Z,42.805,6.029,13.2980,4.59992,2470.017,2020-6-29T09:18:52Z
2020-06-29T07:21:10Z,42.805,6.029,13.2979,4.59989,2470.053,2020-6-29T09:21:55Z
2020-06-29T07:24:13Z,42.805,6.029,13.2979,4.59987,2470.053,2020-6-29T09:24:58Z
2020-06-29T07:27:16Z,42.805,6.029,13.2973,4.59995,2470.007,2020-6-29T09:28:02Z
2020-06-29T07:30:19Z,42.805,6.029,13.2976,4.59999,2470.03,2020-6-29T09:31:05Z
2020-06-29T07:33:23Z,42.805,6.029,13.2979,4.59989,2470.03,2020-6-29T09:34:08Z
2020-06-29T07:36:26Z,42.805,6.029,13.2976,4.59985,2470.017,2020-6-29T09:37:11Z
2020-06-29T07:39:29Z,42.805,6.029,13.2976,4.59993,2470.017,2020-6-29T09:40:15Z
2020-06-29T07:42:33Z,42.805,6.029,13.2979,4.59986,2469.97,2020-6-29T09:43:18Z
2020-06-29T07:45:36Z,42.805,6.029,13.2978,4.59989,2470.007,2020-6-29T09:46:21Z
2020-06-29T07:48:39Z,42.805,6.029,13.2976,4.59983,2470.007,2020-6-29T09:49:24Z
2020-06-29T07:51:42Z,42.805,6.029,13.2977,4.59988,2469.993,2020-6-29T09:52:28Z
2020-06-29T07:54:45Z,42.805,6.029,13.2976,4.59983,2469.993,2020-6-29T09:55:31Z
2020-06-29T07:57:49Z,42.805,6.029,13.2975,4.59980,2469.993,2020-6-29T09:58:34Z
2020-06-29T08:00:52Z,42.805,6.029,13.2977,4.59986,2469.97,2020-6-29T10:01:37Z
2020-06-29T08:03:55Z,42.805,6.029,13.2979,4.59993,2470.017,2020-6-29T10:04:41Z
2020-06-29T08:06:58Z,42.805,6.029,13.2989,4.59991,2470.007,2020-6-29T10:07:44Z
2020-06-29T08:10:02Z,42.805,6.029,13.2983,4.59991,2470.007,2020-6-29T10:10:47Z
2020-06-29T08:13:05Z,42.805,6.029,13.2976,4.59990,2469.984,2020-6-29T10:13:50Z
2020-06-29T08:16:08Z,42.805,6.029,13.2975,4.59989,2469.97,2020-6-29T10:16:54Z
2020-06-29T08:19:12Z,42.805,6.029,13.2978,4.59991,2469.97,2020-6-29T10:19:57Z
2020-06-29T08:22:15Z,42.805,6.029,13.2981,4.59990,2469.97,2020-6-29T10:23:00Z
2020-06-29T08:25:18Z,42.805,6.029,13.2974,4.59988,2469.993,2020-6-29T10:26:03Z
2020-06-29T08:28:21Z,42.805,6.029,13.2981,4.59992,2470.007,2020-6-29T10:29:07Z
2020-06-29T08:31:24Z,42.805,6.029,13.2978,4.59987,2469.993,2020-6-29T10:32:10Z
2020-06-29T08:34:28Z,42.805,6.029,13.2979,4.59991,2469.984,2020-6-29T10:35:13Z
2020-06-29T08:37:31Z,42.805,6.029,13.2978,4.59985,2470.007,2020-6-29T10:38:17Z
2020-06-29T08:40:35Z,42.805,6.029,13.2988,4.59996,2469.993,2020-6-29T10:41:20Z
2020-06-29T08:43:38Z,42.805,6.029,13.2975,4.59988,2469.984,2020-6-29T10:44:23Z
2020-06-29T08:46:41Z,42.805,6.029,13.2974,4.59986,2469.97,2020-6-29T10:47:27Z
2020-06-29T08:49:44Z,42.805,6.029,13.2982,4.60010,2469.97,2020-6-29T10:50:30Z
2020-06-29T08:52:48Z,42.805,6.029,13.2978,4.59995,2470.03,2020-6-29T10:53:33Z
2020-06-29T08:55:51Z,42.805,6.029,13.2976,4.59991,2469.984,2020-6-29T10:56:36Z
2020-06-29T08:58:54Z,42.805,6.029,13.2979,4.59992,2469.97,2020-6-29T10:59:40Z
2020-06-29T09:01:57Z,42.805,6.029,13.2978,4.59989,2469.923,2020-6-29T11:02:43Z
2020-06-29T09:05:01Z,42.805,6.029,13.2979,4.59991,2470.017,2020-6-29T11:05:46Z
2020-06-29T09:08:04Z,42.805,6.029,13.2976,4.59991,2469.993,2020-6-29T11:08:49Z
2020-06-29T09:11:07Z,42.805,6.029,13.2977,4.60000,2469.993,2020-6-29T11:11:52Z
2020-06-29T09:14:10Z,42.805,6.029,13.2985,4.59987,2469.984,2020-6-29T11:14:56Z
2020-06-29T09:17:13Z,42.805,6.029,13.2979,4.59997,2469.97,2020-6-29T11:17:59Z
2020-06-29T09:20:17Z,42.805,6.029,13.2974,4.59990,2470.017,2020-6-29T11:21:02Z
2020-06-29T09:23:20Z,42.805,6.029,13.2982,4.59992,2469.993,2020-6-29T11:24:05Z
2020-06-29T09:26:23Z,42.805,6.029,13.2978,4.59986,2469.984,2020-6-29T11:27:09Z
2020-06-29T09:29:26Z,42.805,6.029,13.2986,4.60003,2469.947,2020-6-29T11:30:12Z
2020-06-29T09:32:30Z,42.805,6.029,13.2974,4.59988,2470.007,2020-6-29T11:33:15Z
2020-06-29T09:35:33Z,42.805,6.029,13.2981,4.60003,2469.97,2020-6-29T11:36:19Z
2020-06-29T09:38:36Z,42.805,6.029,13.2976,4.59991,2470.007,2020-6-29T11:39:22Z
2020-06-29T09:41:40Z,42.805,6.029,13.2979,4.59987,2470.053,2020-6-29T11:42:25Z
2020-06-29T09:44:43Z,42.805,6.029,13.2982,4.60003,2469.993,2020-6-29T11:45:28Z
2020-06-29T09:47:46Z,42.805,6.029,13.2979,4.59988,2469.97,2020-6-29T11:48:31Z
2020-06-29T09:50:49Z,42.805,6.029,13.2976,4.59988,2469.97,2020-6-29T11:51:35Z
2020-06-29T09:53:53Z,42.805,6.029,13.2979,4.59991,2469.984,2020-6-29T11:54:38Z
2020-06-29T09:56:56Z,42.805,6.029,13.2978,4.59995,2469.984,2020-6-29T11:57:41Z
2020-06-29T09:59:59Z,42.805,6.029,13.2975,4.59991,2470.007,2020-6-29T12:00:45Z
2020-06-29T10:03:02Z,42.805,6.029,13.2975,4.59991,2469.993,2020-6-29T12:03:48Z
2020-06-29T10:06:06Z,42.805,6.029,13.2980,4.59994,2470.017,2020-6-29T12:06:51Z
2020-06-29T10:09:09Z,42.805,6.029,13.2986,4.59998,2469.993,2020-6-29T12:09:55Z
2020-06-29T10:12:12Z,42.805,6.029,13.2974,4.59985,2470.017,2020-6-29T12:12:58Z
2020-06-29T10:15:16Z,42.805,6.029,13.2982,4.60003,2470.007,2020-6-29T12:16:01Z
2020-06-29T10:18:19Z,42.805,6.029,13.2976,4.59998,2470.007,2020-6-29T12:19:05Z
2020-06-29T10:21:22Z,42.805,6.029,13.2987,4.60011,2469.993,2020-6-29T12:22:08Z
2020-06-29T10:24:26Z,42.805,6.029,13.2981,4.60002,2469.984,2020-6-29T12:25:11Z
2020-06-29T10:27:29Z,42.805,6.029,13.2974,4.59990,2469.993,2020-6-29T12:28:14Z
2020-06-29T10:30:32Z,42.805,6.029,13.2982,4.59994,2469.993,2020-6-29T12:31:17Z
2020-06-29T10:33:35Z,42.805,6.029,13.2982,4.59992,2469.993,2020-6-29T12:34:21Z
2020-06-29T10:36:38Z,42.805,6.029,13.2983,4.59999,2470.04,2020-6-29T12:37:24Z
2020-06-29T10:39:42Z,42.805,6.029,13.2979,4.59992,2470.017,2020-6-29T12:40:27Z
2020-06-29T10:42:45Z,42.805,6.029,13.2976,4.59991,2469.993,2020-6-29T12:43:31Z
2020-06-29T10:45:48Z,42.805,6.029,13.2976,4.60001,2469.993,2020-6-29T12:46:34Z
2020-06-29T10:48:52Z,42.805,6.029,13.2978,4.60001,2470.03,2020-6-29T12:49:37Z
2020-06-29T10:51:55Z,42.805,6.029,13.2976,4.59991,2470.017,2020-6-29T12:52:40Z
2020-06-29T10:54:58Z,42.805,6.029,13.2982,4.59989,2470.017,2020-6-29T12:55:43Z
2020-06-29T10:58:01Z,42.805,6.029,13.2979,4.59996,2469.979,2020-6-29T12:58:47Z
2020-06-29T11:01:04Z,42.805,6.029,13.2976,4.60006,2470.007,2020-6-29T13:01:50Z
2020-06-29T11:04:08Z,42.805,6.029,13.2979,4.59985,2470.03,2020-6-29T13:04:53Z
2020-06-29T11:07:11Z,42.805,6.029,13.2980,4.59988,2470.007,2020-6-29T13:07:56Z
2020-06-29T11:10:14Z,42.805,6.029,13.2979,4.59987,2470.017,2020-6-29T13:11:00Z
2020-06-29T11:13:17Z,42.805,6.029,13.2974,4.59985,2469.993,2020-6-29T13:14:03Z
2020-06-29T11:16:21Z,42.805,6.029,13.2986,4.59995,2470.017,2020-6-29T13:17:06Z
2020-06-29T11:19:24Z,42.805,6.029,13.2983,4.59991,2470.03,2020-6-29T13:20:09Z
2020-06-29T11:22:27Z,42.805,6.029,13.2978,4.59986,2470.017,2020-6-29T13:23:13Z
2020-06-29T11:25:30Z,42.805,6.029,13.2977,4.59999,2469.993,2020-6-29T13:26:16Z
2020-06-29T11:28:34Z,42.805,6.029,13.2979,4.59992,2470.04,2020-6-29T13:29:19Z
2020-06-29T11:31:37Z,42.805,6.029,13.2977,4.59988,2470.017,2020-6-29T13:32:22Z
2020-06-29T11:34:40Z,42.805,6.029,13.2975,4.59986,2470.053,2020-6-29T13:35:26Z
2020-06-29T11:37:43Z,42.805,6.029,13.2979,4.59986,2470.017,2020-6-29T13:38:29Z
2020-06-29T11:40:47Z,42.805,6.029,13.2982,4.59989,2470.017,2020-6-29T13:41:32Z
2020-06-29T11:43:50Z,42.805,6.029,13.2976,4.59982,2470.053,2020-6-29T13:44:35Z
2020-06-29T11:46:53Z,42.805,6.029,13.2976,4.59985,2470.04,2020-6-29T13:47:39Z
2020-06-29T11:49:56Z,42.805,6.029,13.2976,4.59986,2470.063,2020-6-29T13:50:42Z
2020-06-29T11:53:00Z,42.805,6.029,13.2990,4.59993,2470.053,2020-6-29T13:53:45Z
2020-06-29T11:56:03Z,42.805,6.029,13.2980,4.60006,2470.053,2020-6-29T13:56:48Z
2020-06-29T11:59:06Z,42.805,6.029,13.2983,4.59991,2470.04,2020-6-29T13:59:51Z
2020-06-29T12:02:09Z,42.805,6.029,13.2972,4.59995,2470.053,2020-6-29T14:02:55Z
2020-06-29T12:05:12Z,42.805,6.029,13.2979,4.59991,2470.017,2020-6-29T14:05:58Z
2020-06-29T12:08:16Z,42.805,6.029,13.2982,4.59989,2470.053,2020-6-29T14:09:01Z
2020-06-29T12:11:19Z,42.805,6.029,13.2979,4.60004,2470.053,2020-6-29T14:12:04Z
2020-06-29T12:14:22Z,42.805,6.029,13.2981,4.60006,2470.017,2020-6-29T14:15:08Z
2020-06-29T12:17:25Z,42.805,6.029,13.2978,4.59996,2470.053,2020-6-29T14:18:11Z
2020-06-29T12:20:29Z,42.805,6.029,13.2986,4.60014,2470.063,2020-6-29T14:21:14Z
2020-06-29T12:23:32Z,42.805,6.029,13.2975,4.59986,2470.04,2020-6-29T14:24:17Z
2020-06-29T12:26:35Z,42.805,6.029,13.2976,4.59991,2470.04,2020-6-29T14:27:21Z
2020-06-29T12:29:38Z,42.805,6.029,13.2979,4.59986,2470.04,2020-6-29T14:30:24Z
2020-06-29T12:32:41Z,42.805,6.029,13.2978,4.60002,2470.087,2020-6-29T14:33:27Z
2020-06-29T12:35:45Z,42.805,6.029,13.2982,4.59996,2470.063,2020-6-29T14:36:30Z
2020-06-29T12:38:48Z,42.805,6.029,13.2981,4.59994,2470.04,2020-6-29T14:39:33Z
2020-06-29T12:41:51Z,42.805,6.029,13.2979,4.60005,2470.04,2020-6-29T14:42:37Z
2020-06-29T12:44:54Z,42.805,6.029,13.2976,4.59988,2470.053,2020-6-29T14:45:40Z
2020-06-29T12:47:58Z,42.805,6.029,13.2979,4.59989,2470.04,2020-6-29T14:48:43Z
2020-06-29T12:51:01Z,42.805,6.029,13.2978,4.60001,2470.063,2020-6-29T14:51:46Z
2020-06-29T12:54:04Z,42.805,6.029,13.2976,4.59986,2470.063,2020-6-29T14:54:50Z
2020-06-29T12:57:07Z,42.805,6.029,13.2979,4.59982,2470.053,2020-6-29T14:57:53Z
2020-06-29T13:00:11Z,42.805,6.029,13.2974,4.59989,2470.063,2020-6-29T15:00:56Z
2020-06-29T13:03:14Z,42.805,6.029,13.2980,4.59999,2470.053,2020-6-29T15:03:59Z
2020-06-29T13:06:17Z,42.805,6.029,13.2976,4.59988,2470.077,2020-6-29T15:07:03Z
2020-06-29T13:09:20Z,42.805,6.029,13.2978,4.59990,2470.087,2020-6-29T15:10:06Z
2020-06-29T13:12:24Z,42.805,6.029,13.2978,4.59991,2470.087,2020-6-29T15:13:09Z
2020-06-29T13:15:27Z,42.805,6.029,13.2976,4.59986,2470.063,2020-6-29T15:16:12Z
2020-06-29T13:18:30Z,42.805,6.029,13.2985,4.59996,2470.04,2020-6-29T15:19:15Z
2020-06-29T13:21:33Z,42.805,6.029,13.2983,4.59991,2470.063,2020-6-29T15:22:19Z
2020-06-29T13:24:36Z,42.805,6.029,13.2983,4.59991,2470.124,2020-6-29T15:25:22Z
2020-06-29T13:27:40Z,42.805,6.029,13.2979,4.59987,2470.077,2020-6-29T15:28:25Z
2020-06-29T13:30:43Z,42.805,6.029,13.2974,4.59991,2470.053,2020-6-29T15:31:28Z
2020-06-29T13:33:46Z,42.805,6.029,13.2974,4.59985,2470.087,2020-6-29T15:34:31Z
2020-06-29T13:36:49Z,42.805,6.029,13.2983,4.59996,2470.087,2020-6-29T15:37:35Z
2020-06-29T13:39:52Z,42.805,6.029,13.2982,4.59991,2470.04,2020-6-29T15:40:38Z
2020-06-29T13:42:56Z,42.805,6.029,13.2982,4.59992,2470.077,2020-6-29T15:43:41Z
2020-06-29T13:45:59Z,42.805,6.029,13.2974,4.59989,2470.063,2020-6-29T15:46:45Z
2020-06-29T13:49:02Z,42.805,6.029,13.2979,4.59988,2470.087,2020-6-29T15:49:48Z
2020-06-29T13:52:06Z,42.805,6.029,13.2976,4.59984,2470.087,2020-6-29T15:52:51Z
2020-06-29T13:55:09Z,42.805,6.029,13.2978,4.59987,2470.087,2020-6-29T15:55:54Z
2020-06-29T13:58:12Z,42.805,6.029,13.2984,4.59993,2470.087,2020-6-29T15:58:58Z
2020-06-29T14:01:16Z,42.805,6.029,13.2978,4.60001,2470.063,2020-6-29T16:02:01Z
2020-06-29T14:04:19Z,42.805,6.029,13.2982,4.59996,2470.087,2020-6-29T16:05:04Z
2020-06-29T14:07:22Z,42.805,6.029,13.2972,4.59984,2470.1,2020-6-29T16:08:07Z
2020-06-29T14:10:25Z,42.805,6.029,13.2976,4.59983,2470.063,2020-6-29T16:11:11Z
2020-06-29T14:13:29Z,42.805,6.029,13.2975,4.59990,2470.04,2020-6-29T16:14:14Z
2020-06-29T14:16:32Z,42.805,6.029,13.2983,4.60008,2470.063,2020-6-29T16:17:17Z
2020-06-29T14:19:35Z,42.805,6.029,13.2977,4.59996,2470.063,2020-6-29T16:20:20Z
2020-06-29T14:22:38Z,42.805,6.029,13.2976,4.60001,2470.053,2020-6-29T16:23:24Z
2020-06-29T14:25:41Z,42.805,6.029,13.2980,4.59998,2470.077,2020-6-29T16:26:27Z
2020-06-29T14:28:45Z,42.805,6.029,13.2987,4.60008,2470.063,2020-6-29T16:29:30Z
2020-06-29T14:31:48Z,42.805,6.029,13.2978,4.59991,2470.087,2020-6-29T16:32:33Z
2020-06-29T14:34:51Z,42.805,6.029,13.2983,4.59992,2470.063,2020-6-29T16:35:37Z
2020-06-29T14:37:54Z,42.805,6.029,13.2976,4.59990,2470.063,2020-6-29T16:38:40Z
2020-06-29T14:40:58Z,42.805,6.029,13.2977,4.59992,2470.063,2020-6-29T16:41:43Z
2020-06-29T14:44:01Z,42.805,6.029,13.2976,4.59991,2470.04,2020-6-29T16:44:47Z
2020-06-29T14:47:04Z,42.805,6.029,13.2978,4.59990,2470.077,2020-6-29T16:47:50Z
2020-06-29T14:50:08Z,42.805,6.029,13.2974,4.59986,2470.04,2020-6-29T16:50:53Z
2020-06-29T14:53:11Z,42.805,6.029,13.2975,4.59984,2470.124,2020-6-29T16:53:56Z
2020-06-29T14:56:14Z,42.805,6.029,13.2976,4.59988,2470.063,2020-6-29T16:56:59Z
2020-06-29T14:59:17Z,42.805,6.029,13.2979,4.59992,2470.063,2020-6-29T17:00:03Z
2020-06-29T15:02:20Z,42.805,6.029,13.2981,4.59996,2470.04,2020-6-29T17:03:06Z
2020-06-29T15:05:24Z,42.805,6.029,13.2979,4.59994,2470.077,2020-6-29T17:06:09Z
2020-06-29T15:08:27Z,42.805,6.029,13.2984,4.60001,2470.077,2020-6-29T17:09:12Z
2020-06-29T15:11:30Z,42.805,6.029,13.2981,4.59992,2470.1,2020-6-29T17:12:16Z